Location: ???? ????
(31.2831°N, 45.5190°E)
Time: 04:36:17
(UTC+00:00)

Atlas Centaur 2 - Pass Details

Date: 24 February 2021
Orbit: 459 x 1309 km, 30.4° (Epoch: 14 April)

Event Time Altitude Azimuth Distance (km) Brightness Sun altitude
Rises 15:42:26 0° 278° (W) 3,865 7.5 -11.4°
Reaches altitude 10° 15:45:39 10° 270° (W) 2,765 6.4 -12.1°
Maximum altitude 15:51:36 36° 207° (SSW) 1,315 3.5 -13.4°
Drops below altitude 10° 15:56:24 10° 141° (SE) 2,206 4.0 -14.4°
Enters shadow 15:56:51 - 139° (SE) 2,352 4.2 -14.5°
